Terminal Aerodrome Forecast
Issued by NWS Los Angeles, CA

Home | Current Version | Previous Version | Text Only | Print | Product List | Glossary On
Versions: 1 2 3 4 5 6 7 8 9 10 11 12 13 14 15 16 17 18 19 20 21 22 23 24 25 26 27 28
000
FTUS46 KLOX 051502 AAA
TAFSMX
TAF AMD
KSMX 051502Z 0515/0612 VRB03KT P6SM OVC012
     FM051900 29007KT P6SM SCT015
     FM052100 31012KT P6SM SKC
     FM060300 VRB03KT P6SM BKN007
     FM061000 VRB03KT 5SM BR OVC003=

USA.gov is the U.S. government's official web portal to all federal, state and local government web resources and services.